{"data":{"norad_id":59467,"intl_designator":"2024-068N","name":"STARLINK-31592","alt_names":[],"object_type":"PAYLOAD","status":"ACTIVE","operator":null,"country":"US","launch_date":"2024-04-10","launch_site_code":"AFETR","launch_vehicle":null,"mission":null,"orbit_class":"UNKNOWN","rcs_meters":null,"size_class":null,"mass_kg":null,"dimensions":null,"purposes":["comms"],"wikipedia_slug":null,"has_3d_model":false,"image_url":null,"decayed_at":null,"tle_current":{"epoch":"2026-09-21T08:26:42.134784Z","epoch_age_seconds":91556,"freshness":"FRESH","line1":"1 59467U 24068N   26264.35187656 -.00000945  00000+0 -24801-4 0  9990","line2":"2 59467  43.0042   9.7863 0001497 274.3935  85.6746 15.27589788138449","mean_motion":15.27589788,"eccentricity":0.0001497,"inclination_deg":43.0042,"raan_deg":9.7863,"arg_perigee_deg":274.3935,"mean_anomaly_deg":85.6746,"bstar":-2.4801e-5,"rev_number":13844,"period_min":94.266144701407,"perigee_km":481.99267223186,"apogee_km":484.04690257401,"semimajor_km":6861.1567874029,"source":"CELESTRAK","updated_at":"2026-09-22T09:00:48.949061Z"}}}